Regional Weather Roundup
Issued by NWS

Home | Current Version | Previous Version | Graphics & Text | Print | Product List | Glossary On
Versions: 1 2 3 4 5 6 7 8 9 10 11 12 13 14 15 16 17 18 19 20 21 22 23 24 25 26 27 28 29 30 31 32 33 34 35 36 37 38 39 40 41 42 43 44 45 46 47 48 49 50
000
ASUS43 KBIS 290010
RWRND

NORTH DAKOTA REGIONAL WEATHER ROUNDUP
NATIONAL WEATHER SERVICE BISMARCK ND
700 PM CDT THU AUG 28 2014

NOTE: "FAIR" INDICATES FEW OR NO CLOUDS BELOW 12,000 FEET WITH NO
SIGNIFICANT WEATHER AND/OR OBSTRUCTIONS TO VISIBILITY.


NDZ001>003-009>011-017-290100-
NORTHWEST NORTH DAKOTA

CITY           SKY/WX    TMP DP  RH WIND       PRES   REMARKS
WILLISTON      CLOUDY    89  50  26 NW5       29.76F
6HR MIN TEMP:  82; 6HR MAX TEMP:  91;

MINOT          MOSUNNY   83  58  42 S13       29.77F
MINOT AFB      MOSUNNY   83  61  46 S8        29.76F
$$

NDZ018>021-031>035-040>046-290100-
SOUTHWEST NORTH DAKOTA

CITY           SKY/WX    TMP DP  RH WIND       PRES   REMARKS
BISMARCK       CLOUDY    73  67  81 SE7       29.85F
6HR MIN TEMP:  71; 6HR MAX TEMP:  76;

DICKINSON      MOSUNNY   84  53  34 NW5       29.83F
GARRISON         N/A     79  64  60 S9        29.81F
6HR MIN TEMP:  73; 6HR MAX TEMP:  83;

HETTINGER ARPT PTSUNNY   78  57  48 SE6       29.88S
$$

NDZ004>008-012>016-024-026-027-054-290100-
NORTHEAST NORTH DAKOTA

CITY           SKY/WX    TMP DP  RH WIND       PRES   REMARKS
GRAND FORKS    CLOUDY    71  65  81 S14       29.85F
GRND FRKS AFB  PTSUNNY   71  69  93 S14       29.86S
DEVILS LAKE    CLOUDY    73  64  73 S14       29.82F
$$

NDZ022-023-025-028>030-036>039-047>053-290100-
SOUTHEAST NORTH DAKOTA

CITY           SKY/WX    TMP DP  RH WIND       PRES   REMARKS
FARGO          LGT RAIN  68  64  87 SE10      29.89S
6HR MIN TEMP:  68; 6HR MAX TEMP:  73; 6HR PCP: TRACE;

JAMESTOWN      CLOUDY    68  65  90 SE9       29.86F
$$



USA.gov is the U.S. government's official web portal to all federal, state and local government web resources and services.